QPF
0.01 0.01 0.01 0.00 0.01 0.01 0.01 0.01 0.01 0.01 0.01 0.01 0.01 0.01 0.01 0.01 0.01 0.01 0.02 0.03 0.02 0.02 0.03 0.04 0.05 0.06 0.08 0.09 0.08 0.07 0.05 0.05 0.10 0.17 0.17 0.17 0.21 0.21 0.21 0.24 0.22 0.15 0.11 0.09
0.01 0.01 0.00 0.00 0.00 0.01 0.01 0.01 0.01 0.01 0.02 0.02 0.01 0.01 0.00 0.01 0.02 0.02 0.02 0.04 0.04 0.03 0.04 0.05 0.04 0.04 0.06 0.07 0.06 0.05 0.04 0.03 0.03 0.09 0.16 0.17 0.17 0.20 0.21 0.21 0.22 0.19 0.14 0.10
0.00 0.00 0.00 0.00 0.00 0.01 0.01 0.00 0.00 0.02 0.01 0.01 0.01 0.01 0.00 0.01 0.01 0.01 0.03 0.04 0.04 0.05 0.05 0.05 0.04 0.03 0.04 0.05 0.05 0.04 0.04 0.03 0.02 0.03 0.07 0.12 0.15 0.17 0.18 0.20 0.19 0.17 0.15 0.12
0.00 0.00 0.00 0.00 0.01 0.01 0.00 0.00 0.00 0.01 0.01 0.02 0.02 0.01 0.00 0.01 0.01 0.01 0.02 0.02 0.04 0.05 0.06 0.04 0.03 0.03 0.03 0.04 0.04 0.04 0.03 0.03 0.02 0.03 0.05 0.09 0.13 0.15 0.16 0.17 0.18 0.15 0.11 0.09
0.00 0.00 0.00 0.00 0.00 0.01 0.01 0.00 0.00 0.00 0.01 0.01 0.02 0.02 0.00 0.00 0.01 0.01 0.02 0.02 0.04 0.06 0.06 0.05 0.05 0.04 0.04 0.04 0.04 0.03 0.02 0.02 0.03 0.03 0.05 0.08 0.11 0.13 0.13 0.14 0.15 0.14 0.12 0.09
0.00 0.00 0.00 0.00 0.00 0.00 0.00 0.00 0.00 0.00 0.00 0.00 0.01 0.02 0.01 0.00 0.00 0.01 0.01 0.02 0.03 0.05 0.06 0.05 0.05 0.05 0.05 0.05 0.05 0.03 0.02 0.02 0.02 0.02 0.04 0.07 0.09 0.10 0.10 0.10 0.11 0.11 0.10 0.09
0.00 0.00 0.00 0.00 0.00 0.00 0.00 0.00 0.01 0.01 0.00 0.00 0.00 0.01 0.02 0.01 0.00 0.00 0.00 0.01 0.02 0.03 0.04 0.05 0.04 0.04 0.05 0.05 0.05 0.04 0.02 0.02 0.03 0.02 0.03 0.05 0.07 0.08 0.08 0.09 0.09 0.08 0.07 0.07
0.00 0.00 0.00 0.01 0.01 0.00 0.00 0.00 0.00 0.00 0.00 0.00 0.00 0.00 0.02 0.02 0.00 0.00 0.00 0.00 0.00 0.01 0.02 0.03 0.04 0.03 0.04 0.04 0.04 0.04 0.03 0.03 0.03 0.03 0.03 0.04 0.05 0.06 0.07 0.07 0.07 0.07 0.07 0.07
0.00 0.00 0.00 0.00 0.01 0.00 0.00 0.00 0.00 0.00 0.00 0.00 0.00 0.00 0.01 0.02 0.01 0.00 0.00 0.00 0.00 0.00 0.01 0.02 0.02 0.02 0.03 0.03 0.03 0.04 0.03 0.03 0.03 0.03 0.03 0.04 0.04 0.05 0.05 0.05 0.06 0.06 0.06 0.05
0.00 0.00 0.00 0.00 0.00 0.00 0.00 0.00 0.00 0.00 0.01 0.00 0.00 0.00 0.00 0.01 0.01 0.00 0.00 0.00 0.00 0.00 0.01 0.01 0.01 0.01 0.01 0.02 0.02 0.02 0.03 0.03 0.03 0.03 0.02 0.02 0.02 0.03 0.04 0.03 0.04 0.04 0.04 0.03
0.00 0.00 0.00 0.00 0.00 0.00 0.00 0.00 0.00 0.01 0.01 0.01 0.01 0.00 0.00 0.01 0.00 0.00 0.00 0.00 0.00 0.00 0.00 0.00 0.00 0.00 0.01 0.01 0.01 0.01 0.02 0.02 0.03 0.03 0.02 0.02 0.01 0.01 0.02 0.02 0.01 0.01 0.01 0.02
0.00 0.00 0.00 0.00 0.00 0.00 0.00 0.00 0.00 0.01 0.01 0.01 0.01 0.00 0.00 0.00 0.00 0.00 0.00 0.00 0.00 0.00 0.00 0.00 0.00 0.00 0.00 0.00 0.00 0.00 0.00 0.01 0.01 0.02 0.02 0.01 0.01 0.01 0.01 0.01 0.01 0.01 0.01 0.01
0.00 0.00 0.00 0.00 0.00 0.00 0.00 0.00 0.00 0.00 0.01 0.00 0.00 0.00 0.00 0.00 0.00 0.00 0.00 0.00 0.00 0.00 0.00 0.00 0.00 0.00 0.00 0.00 0.00 0.00 0.00 0.01 0.01 0.01 0.01 0.01 0.00 0.00 0.00 0.00 0.00 0.00 0.00 0.00
0.00 0.00 0.00 0.00 0.00 0.00 0.00 0.00 0.00 0.00 0.01 0.00 0.00 0.00 0.00 0.00 0.00 0.00 0.00 0.00 0.00 0.00 0.00 0.00 0.00 0.00 0.00 0.00 0.01 0.01 0.01 0.01 0.01 0.00 0.00 0.00 0.00 0.00 0.00 0.00 0.00 0.00 0.00 0.00
0.00 0.00 0.00 0.00 0.00 0.00 0.00 0.00 0.00 0.00 0.00 0.00 0.00 0.00 0.00 0.00 0.01 0.00 0.00 0.00 0.00 0.00 0.00 0.00 0.00 0.00 0.00 0.01 0.01 0.01 0.01 0.01 0.00 0.00 0.00 0.00 0.00 0.00 0.00 0.00 0.00 0.00 0.00 0.01
0.00 0.00 0.00 0.00 0.00 0.00 0.00 0.00 0.00 0.00 0.00 0.00 0.00 0.00 0.00 0.00 0.00 0.00 0.00 0.00 0.00 0.00 0.00 0.01 0.01 0.00 0.00 0.01 0.01 0.01 0.01 0.00 0.00 0.00 0.00 0.00 0.00 0.00 0.01 0.01 0.00 0.00 0.01 0.01
0.00 0.00 0.00 0.00 0.00 0.00 0.00 0.00 0.00 0.00 0.00 0.00 0.01 0.00 0.00 0.00 0.00 0.00 0.00 0.00 0.00 0.00 0.01 0.01 0.01 0.01 0.01 0.02 0.01 0.00 0.00 0.00 0.00 0.00 0.00 0.00 0.00 0.01 0.01 0.01 0.00 0.01 0.01 0.01
0.00 0.00 0.00 0.00 0.00 0.00 0.00 0.00 0.00 0.00 0.00 0.00 0.00 0.00 0.00 0.00 0.00 0.00 0.00 0.00 0.00 0.00 0.01 0.00 0.00 0.01 0.01 0.01 0.00 0.00 0.00 0.00 0.00 0.00 0.00 0.00 0.00 0.01 0.00 0.00 0.00 0.00 0.01 0.01
0.00 0.00 0.01 0.01 0.00 0.00 0.00 0.00 0.00 0.00 0.00 0.01 0.00 0.00 0.00 0.00 0.00 0.00 0.00 0.00 0.00 0.00 0.01 0.01 0.00 0.00 0.00 0.00 0.00 0.00 0.00 0.00 0.00 0.00 0.00 0.00 0.00 0.00 0.00 0.00 0.00 0.00 0.00 0.01
0.00 0.00 0.01 0.01 0.01 0.01 0.01 0.00 0.00 0.00 0.01 0.00 0.00 0.00 0.00 0.00 0.00 0.00 0.00 0.01 0.01 0.01 0.01 0.00 0.00 0.00 0.00 0.00 0.00 0.00 0.00 0.00 0.00 0.00 0.00 0.00 0.00 0.00 0.00 0.00 0.01 0.01 0.00 0.00
0.00 0.01 0.01 0.01 0.01 0.01 0.00 0.00 0.00 0.00 0.00 0.00 0.00 0.00 0.00 0.01 0.01 0.00 0.00 0.00 0.00 0.00 0.00 0.00 0.00 0.00 0.00 0.00 0.00 0.00 0.00 0.00 0.00 0.00 0.00 0.00 0.00 0.00 0.00 0.00 0.01 0.01 0.00 0.00
0.00 0.01 0.01 0.01 0.01 0.01 0.00 0.00 0.00 0.00 0.00 0.00 0.00 0.00 0.00 0.00 0.00 0.00 0.00 0.00 0.00 0.00 0.00 0.00 0.00 0.00 0.00 0.00 0.00 0.00 0.00 0.00 0.00 0.00 0.00 0.00 0.00 0.00 0.00 0.00 0.00 0.00 0.00 0.00
0.00 0.00 0.01 0.01 0.01 0.00 0.00 0.00 0.00 0.00 0.00 0.00 0.00 0.00 0.00 0.00 0.00 0.00 0.00 0.00 0.00 0.00 0.00 0.00 0.00 0.00 0.00 0.00 0.00 0.00 0.00 0.00 0.00 0.00 0.00 0.00 0.00 0.00 0.00 0.00 0.00 0.01 0.01 0.00
0.01 0.00 0.01 0.01 0.01 0.00 0.00 0.00 0.00 0.00 0.00 0.00 0.00 0.00 0.00 0.00 0.00 0.00 0.00 0.00 0.00 0.00 0.00 0.00 0.00 0.00 0.00 0.00 0.00 0.00 0.00 0.00 0.00 0.00 0.00 0.00 0.00 0.00 0.00 0.00 0.01 0.01 0.01 0.00
0.00 0.00 0.00 0.01 0.00 0.00 0.00 0.00 0.00 0.00 0.00 0.00 0.00 0.00 0.00 0.00 0.00 0.00 0.00 0.00 0.00 0.00 0.00 0.00 0.00 0.00 0.00 0.00 0.00 0.00 0.00 0.00 0.00 0.00 0.00 0.00 0.00 0.00 0.00 0.00 0.01 0.01 0.01 0.01
0.00 0.00 0.01 0.01 0.00 0.00 0.00 0.00 0.00 0.00 0.00 0.00 0.00 0.00 0.00 0.00 0.00 0.00 0.00 0.00 0.00 0.00 0.00 0.00 0.00 0.01 0.01 0.01 0.01 0.01 0.01 0.01 0.01 0.00 0.00 0.00 0.00 0.00 0.00 0.00 0.01 0.01 0.01 0.01
MSLP
1018.89 1018.75 1018.45 1018.02 1017.45 1016.78 1016.03 1015.25 1014.45 1013.67 1012.94 1012.26 1011.66 1011.13 1010.69 1010.31 1010.01 1009.76 1009.57 1009.45 1009.40 1009.44 1009.59 1009.86 1010.27 1010.80 1011.46 1012.21 1013.03 1013.88 1014.74 1015.56 1016.34 1017.05 1017.69 1018.26 1018.77 1019.22 1019.62 1019.98 1020.29 1020.57 1020.82 1021.05
1018.61 1018.36 1017.95 1017.40 1016.74 1015.99 1015.20 1014.39 1013.59 1012.83 1012.11 1011.45 1010.86 1010.34 1009.90 1009.53 1009.26 1009.06 1008.96 1008.94 1009.01 1009.18 1009.44 1009.81 1010.28 1010.85 1011.50 1012.23 1013.01 1013.82 1014.65 1015.46 1016.23 1016.96 1017.63 1018.23 1018.76 1019.22 1019.62 1019.97 1020.27 1020.54 1020.79 1021.03
1018.26 1017.92 1017.42 1016.80 1016.08 1015.30 1014.50 1013.71 1012.93 1012.19 1011.48 1010.82 1010.21 1009.66 1009.19 1008.81 1008.53 1008.37 1008.33 1008.41 1008.60 1008.89 1009.28 1009.75 1010.29 1010.89 1011.54 1012.24 1012.98 1013.75 1014.53 1015.31 1016.08 1016.82 1017.50 1018.12 1018.67 1019.15 1019.55 1019.89 1020.18 1020.45 1020.70 1020.94
1017.92 1017.52 1016.97 1016.32 1015.59 1014.83 1014.07 1013.32 1012.59 1011.87 1011.18 1010.49 1009.83 1009.21 1008.67 1008.22 1007.91 1007.74 1007.74 1007.89 1008.18 1008.60 1009.11 1009.68 1010.29 1010.93 1011.58 1012.26 1012.94 1013.66 1014.38 1015.13 1015.87 1016.60 1017.30 1017.93 1018.50 1018.98 1019.39 1019.73 1020.02 1020.28 1020.52 1020.77
1017.70 1017.25 1016.68 1016.03 1015.34 1014.65 1013.96 1013.29 1012.63 1011.95 1011.26 1010.54 1009.80 1009.09 1008.43 1007.89 1007.49 1007.28 1007.27 1007.46 1007.83 1008.34 1008.95 1009.61 1010.29 1010.97 1011.62 1012.27 1012.90 1013.55 1014.22 1014.91 1015.62 1016.33 1017.02 1017.66 1018.24 1018.73 1019.15 1019.49 1019.78 1020.04 1020.29 1020.54
1017.63 1017.15 1016.58 1015.98 1015.36 1014.77 1014.19 1013.63 1013.05 1012.43 1011.74 1010.98 1010.17 1009.35 1008.56 1007.88 1007.37 1007.08 1007.03 1007.22 1007.62 1008.19 1008.87 1009.60 1010.33 1011.02 1011.68 1012.29 1012.87 1013.46 1014.06 1014.69 1015.35 1016.02 1016.69 1017.33 1017.92 1018.42 1018.85 1019.21 1019.50 1019.76 1020.01 1020.27
1017.75 1017.24 1016.70 1016.15 1015.63 1015.16 1014.71 1014.27 1013.80 1013.24 1012.58 1011.80 1010.92 1009.98 1009.07 1008.25 1007.61 1007.21 1007.08 1007.23 1007.62 1008.21 1008.92 1009.68 1010.43 1011.14 1011.77 1012.34 1012.87 1013.38 1013.91 1014.47 1015.07 1015.70 1016.35 1016.98 1017.57 1018.09 1018.53 1018.90 1019.21 1019.48 1019.74 1019.99
1018.01 1017.50 1016.98 1016.50 1016.08 1015.73 1015.42 1015.11 1014.75 1014.27 1013.65 1012.87 1011.94 1010.94 1009.91 1008.98 1008.22 1007.70 1007.48 1007.55 1007.90 1008.45 1009.14 1009.90 1010.64 1011.32 1011.92 1012.44 1012.90 1013.34 1013.79 1014.28 1014.83 1015.42 1016.03 1016.65 1017.24 1017.77 1018.23 1018.62 1018.95 1019.23 1019.50 1019.76
1018.35 1017.84 1017.36 1016.95 1016.62 1016.38 1016.19 1016.00 1015.75 1015.36 1014.80 1014.05 1013.12 1012.08 1010.99 1009.98 1009.12 1008.51 1008.19 1008.17 1008.43 1008.92 1009.55 1010.25 1010.95 1011.58 1012.13 1012.59 1012.98 1013.36 1013.74 1014.16 1014.65 1015.19 1015.78 1016.38 1016.97 1017.51 1017.99 1018.40 1018.75 1019.05 1019.32 1019.59
1018.70 1018.21 1017.76 1017.41 1017.15 1017.00 1016.90 1016.81 1016.64 1016.34 1015.86 1015.16 1014.28 1013.25 1012.16 1011.12 1010.21 1009.53 1009.12 1009.01 1009.17 1009.56 1010.11 1010.73 1011.34 1011.91 1012.39 1012.79 1013.13 1013.43 1013.76 1014.13 1014.56 1015.06 1015.62 1016.21 1016.79 1017.34 1017.84 1018.27 1018.64 1018.95 1019.23 1019.50
1018.99 1018.52 1018.11 1017.80 1017.59 1017.48 1017.44 1017.40 1017.30 1017.07 1016.66 1016.05 1015.24 1014.28 1013.25 1012.23 1011.32 1010.61 1010.14 1009.95 1010.02 1010.30 1010.74 1011.26 1011.78 1012.27 1012.68 1013.02 1013.31 1013.58 1013.86 1014.18 1014.58 1015.05 1015.58 1016.15 1016.73 1017.28 1017.78 1018.23 1018.61 1018.94 1019.22 1019.49
1019.18 1018.76 1018.39 1018.10 1017.90 1017.80 1017.76 1017.74 1017.66 1017.47 1017.12 1016.59 1015.88 1015.02 1014.09 1013.14 1012.29 1011.59 1011.10 1010.85 1010.84 1011.02 1011.35 1011.77 1012.20 1012.61 1012.97 1013.27 1013.53 1013.77 1014.03 1014.33 1014.70 1015.15 1015.65 1016.20 1016.76 1017.31 1017.81 1018.26 1018.65 1018.99 1019.28 1019.54
1019.29 1018.93 1018.58 1018.30 1018.09 1017.95 1017.87 1017.80 1017.70 1017.51 1017.20 1016.74 1016.14 1015.40 1014.59 1013.76 1012.99 1012.34 1011.87 1011.59 1011.52 1011.62 1011.86 1012.19 1012.55 1012.91 1013.23 1013.51 1013.76 1013.99 1014.25 1014.55 1014.91 1015.33 1015.81 1016.34 1016.88 1017.41 1017.90 1018.35 1018.74 1019.07 1019.36 1019.62
1019.37 1019.06 1018.74 1018.44 1018.18 1017.97 1017.79 1017.63 1017.46 1017.24 1016.93 1016.53 1016.01 1015.40 1014.72 1014.03 1013.37 1012.81 1012.37 1012.10 1011.99 1012.04 1012.22 1012.48 1012.79 1013.11 1013.42 1013.71 1013.97 1014.23 1014.50 1014.81 1015.16 1015.57 1016.03 1016.52 1017.03 1017.54 1018.01 1018.45 1018.83 1019.17 1019.46 1019.72
1019.48 1019.21 1018.90 1018.57 1018.23 1017.90 1017.59 1017.30 1017.02 1016.73 1016.40 1016.02 1015.58 1015.07 1014.53 1013.97 1013.43 1012.97 1012.59 1012.35 1012.24 1012.26 1012.39 1012.62 1012.91 1013.22 1013.54 1013.85 1014.15 1014.44 1014.74 1015.07 1015.42 1015.82 1016.25 1016.71 1017.19 1017.66 1018.11 1018.53 1018.90 1019.24 1019.53 1019.79
1019.66 1019.42 1019.09 1018.70 1018.26 1017.79 1017.34 1016.90 1016.49 1016.10 1015.72 1015.34 1014.95 1014.54 1014.11 1013.68 1013.26 1012.89 1012.59 1012.38 1012.28 1012.29 1012.41 1012.63 1012.91 1013.23 1013.57 1013.92 1014.27 1014.61 1014.94 1015.28 1015.65 1016.03 1016.43 1016.86 1017.30 1017.74 1018.16 1018.56 1018.93 1019.26 1019.56 1019.82
1019.94 1019.69 1019.32 1018.85 1018.29 1017.68 1017.07 1016.48 1015.94 1015.45 1015.02 1014.63 1014.27 1013.94 1013.60 1013.28 1012.97 1012.68 1012.45 1012.28 1012.19 1012.21 1012.32 1012.53 1012.82 1013.16 1013.53 1013.92 1014.31 1014.68 1015.05 1015.42 1015.78 1016.15 1016.53 1016.92 1017.33 1017.74 1018.14 1018.53 1018.90 1019.23 1019.53 1019.80
1020.28 1019.99 1019.55 1018.98 1018.31 1017.57 1016.82 1016.10 1015.45 1014.88 1014.40 1014.01 1013.68 1013.41 1013.15 1012.91 1012.68 1012.46 1012.27 1012.13 1012.06 1012.07 1012.18 1012.38 1012.66 1013.01 1013.41 1013.82 1014.25 1014.66 1015.05 1015.42 1015.79 1016.15 1016.51 1016.88 1017.26 1017.66 1018.05 1018.44 1018.80 1019.15 1019.45 1019.72
1020.60 1020.24 1019.72 1019.05 1018.28 1017.43 1016.58 1015.77 1015.05 1014.44 1013.95 1013.57 1013.28 1013.05 1012.86 1012.68 1012.50 1012.33 1012.16 1012.03 1011.95 1011.94 1012.02 1012.20 1012.47 1012.81 1013.21 1013.64 1014.07 1014.50 1014.91 1015.29 1015.66 1016.01 1016.36 1016.73 1017.10 1017.49 1017.89 1018.28 1018.66 1019.02 1019.34 1019.61
1020.79 1020.35 1019.75 1019.00 1018.14 1017.24 1016.34 1015.50 1014.76 1014.16 1013.68 1013.34 1013.09 1012.91 1012.76 1012.62 1012.47 1012.31 1012.14 1011.99 1011.88 1011.83 1011.87 1012.01 1012.24 1012.56 1012.94 1013.36 1013.79 1014.22 1014.64 1015.02 1015.39 1015.75 1016.11 1016.48 1016.86 1017.27 1017.68 1018.10 1018.50 1018.87 1019.19 1019.46
1020.77 1020.24 1019.57 1018.76 1017.88 1016.96 1016.07 1015.26 1014.56 1014.00 1013.58 1013.29 1013.09 1012.95 1012.83 1012.71 1012.56 1012.39 1012.19 1012.00 1011.83 1011.73 1011.71 1011.79 1011.97 1012.25 1012.59 1012.99 1013.41 1013.84 1014.25 1014.65 1015.03 1015.41 1015.78 1016.18 1016.59 1017.02 1017.46 1017.91 1018.33 1018.71 1019.04 1019.30
1020.45 1019.86 1019.14 1018.33 1017.46 1016.59 1015.76 1015.02 1014.41 1013.93 1013.59 1013.35 1013.20 1013.10 1012.99 1012.86 1012.70 1012.48 1012.24 1011.99 1011.77 1011.60 1011.51 1011.53 1011.66 1011.88 1012.19 1012.55 1012.96 1013.38 1013.80 1014.21 1014.61 1015.02 1015.43 1015.86 1016.31 1016.78 1017.26 1017.73 1018.17 1018.57 1018.89 1019.14
1019.83 1019.21 1018.50 1017.71 1016.91 1016.12 1015.40 1014.78 1014.27 1013.89 1013.62 1013.45 1013.33 1013.23 1013.12 1012.97 1012.76 1012.50 1012.20 1011.89 1011.61 1011.38 1011.24 1011.20 1011.28 1011.46 1011.74 1012.08 1012.47 1012.89 1013.32 1013.76 1014.20 1014.64 1015.10 1015.58 1016.07 1016.58 1017.09 1017.59 1018.04 1018.43 1018.74 1018.95
1018.96 1018.36 1017.68 1016.98 1016.28 1015.61 1015.02 1014.51 1014.12 1013.83 1013.62 1013.48 1013.37 1013.25 1013.11 1012.91 1012.65 1012.33 1011.98 1011.63 1011.31 1011.04 1010.87 1010.81 1010.86 1011.02 1011.27 1011.61 1012.00 1012.43 1012.88 1013.35 1013.83 1014.32 1014.83 1015.36 1015.89 1016.43 1016.97 1017.47 1017.91 1018.28 1018.56 1018.74
1017.95 1017.39 1016.80 1016.21 1015.63 1015.10 1014.63 1014.24 1013.93 1013.70 1013.52 1013.37 1013.23 1013.07 1012.86 1012.60 1012.29 1011.93 1011.55 1011.18 1010.84 1010.58 1010.41 1010.35 1010.40 1010.57 1010.83 1011.18 1011.59 1012.04 1012.52 1013.03 1013.55 1014.09 1014.64 1015.20 1015.77 1016.33 1016.86 1017.35 1017.78 1018.11 1018.35 1018.47
1016.92 1016.45 1015.97 1015.49 1015.04 1014.63 1014.27 1013.96 1013.70 1013.47 1013.27 1013.08 1012.87 1012.64 1012.36 1012.03 1011.67 1011.29 1010.90 1010.54 1010.24 1010.01 1009.88 1009.87 1009.97 1010.17 1010.46 1010.84 1011.27 1011.76 1012.27 1012.81 1013.37 1013.94 1014.52 1015.10 1015.69 1016.24 1016.76 1017.22 1017.60 1017.89 1018.07 1018.14
Thickness
5562 5555 5552 5554 5555 5557 5555 5553 5553 5560 5567 5566 5568 5573 5581 5583 5583 5586 5588 5590 5593 5598 5601 5601 5602 5603 5603 5604 5605 5607 5608 5609 5609 5609 5610 5610 5611 5613 5614 5615 5616 5618 5619 5619
5553 5553 5558 5558 5556 5555 5553 5553 5553 5559 5564 5564 5564 5570 5578 5581 5582 5584 5586 5587 5590 5593 5595 5597 5597 5598 5599 5600 5601 5601 5602 5603 5604 5606 5607 5607 5606 5606 5607 5608 5608 5609 5610 5610
5555 5558 5560 5558 5555 5553 5553 5552 5553 5553 5557 5560 5560 5570 5577 5582 5581 5583 5585 5586 5589 5591 5593 5593 5593 5593 5594 5595 5597 5598 5597 5598 5599 5600 5601 5601 5600 5599 5599 5600 5600 5601 5602 5602
5553 5556 5556 5555 5554 5553 5551 5557 5554 5552 5548 5546 5549 5550 5569 5574 5576 5581 5582 5582 5586 5590 5591 5591 5590 5589 5590 5592 5593 5594 5593 5593 5594 5595 5596 5596 5595 5594 5593 5594 5593 5593 5593 5594
5553 5556 5555 5554 5556 5554 5552 5554 5551 5549 5547 5543 5542 5541 5559 5568 5573 5580 5582 5582 5583 5586 5588 5589 5589 5589 5588 5588 5588 5588 5588 5589 5589 5590 5591 5591 5589 5588 5586 5587 5585 5585 5584 5585
5552 5555 5554 5554 5555 5554 5551 5549 5547 5538 5535 5540 5544 5537 5550 5562 5572 5578 5581 5582 5582 5583 5584 5585 5585 5584 5584 5583 5582 5582 5583 5584 5584 5583 5584 5584 5583 5581 5580 5579 5578 5576 5576 5576
5551 5555 5554 5552 5551 5550 5545 5540 5532 5532 5525 5536 5540 5538 5550 5571 5574 5576 5578 5579 5579 5579 5579 5579 5580 5579 5579 5578 5577 5576 5577 5578 5577 5577 5577 5577 5576 5574 5574 5573 5571 5569 5568 5567
5544 5545 5552 5550 5549 5544 5540 5539 5530 5529 5525 5528 5533 5537 5558 5572 5572 5573 5574 5575 5576 5576 5575 5576 5576 5575 5574 5573 5573 5572 5571 5571 5570 5570 5570 5570 5569 5568 5567 5566 5564 5563 5562 5560
5539 5545 5551 5550 5548 5546 5541 5530 5532 5520 5518 5518 5530 5538 5556 5572 5571 5571 5571 5571 5571 5571 5572 5571 5572 5571 5570 5569 5568 5567 5566 5565 5564 5563 5563 5562 5562 5561 5559 5558 5556 5555 5553 5552
5542 5538 5546 5545 5546 5543 5540 5531 5518 5521 5524 5525 5534 5538 5547 5566 5568 5567 5566 5565 5566 5566 5566 5567 5567 5567 5566 5565 5563 5561 5561 5560 5559 5557 5557 5556 5554 5553 5551 5549 5547 5546 5545 5543
5539 5534 5537 5539 5541 5540 5535 5532 5523 5513 5514 5519 5522 5544 5558 5559 5561 5559 5560 5560 5560 5560 5561 5560 5560 5560 5559 5559 5558 5556 5555 5553 5552 5550 5549 5548 5546 5544 5543 5541 5539 5537 5535 5533
5533 5523 5523 5534 5539 5537 5536 5533 5523 5522 5518 5507 5508 5536 5561 5555 5554 5554 5555 5555 5556 5556 5555 5555 5554 5552 5552 5551 5551 5549 5548 5547 5546 5544 5542 5540 5538 5536 5534 5532 5530 5528 5526 5524
5530 5524 5526 5534 5534 5530 5529 5528 5523 5517 5509 5498 5504 5537 5555 5549 5551 5551 5550 5550 5549 5550 5550 5549 5547 5546 5545 5544 5544 5543 5542 5541 5539 5537 5535 5532 5530 5528 5525 5523 5521 5519 5517 5514
5530 5520 5521 5529 5534 5527 5523 5524 5518 5514 5506 5505 5513 5533 5547 5546 5544 5544 5543 5542 5542 5542 5543 5542 5540 5539 5538 5537 5536 5535 5533 5532 5531 5528 5526 5524 5522 5519 5517 5515 5512 5510 5507 5504
5523 5516 5514 5515 5519 5518 5519 5521 5515 5512 5514 5515 5524 5525 5539 5537 5535 5535 5535 5534 5534 5535 5535 5535 5534 5532 5531 5529 5528 5526 5525 5523 5522 5519 5517 5515 5513 5510 5508 5505 5502 5500 5497 5495
5510 5510 5510 5511 5518 5512 5513 5518 5513 5513 5514 5514 5518 5526 5533 5530 5527 5527 5526 5526 5526 5526 5527 5527 5526 5525 5524 5523 5521 5519 5518 5515 5513 5511 5509 5506 5503 5501 5498 5495 5492 5489 5486 5484
5498 5498 5501 5500 5505 5510 5515 5525 5520 5515 5512 5513 5517 5526 5524 5522 5521 5520 5518 5517 5517 5518 5518 5518 5518 5518 5517 5515 5514 5512 5510 5507 5504 5502 5500 5497 5495 5491 5488 5485 5482 5479 5476 5473
5491 5489 5485 5483 5494 5502 5526 5525 5521 5516 5514 5508 5510 5513 5512 5512 5511 5510 5509 5509 5509 5509 5510 5509 5509 5508 5508 5507 5506 5504 5501 5498 5495 5492 5490 5487 5485 5481 5478 5474 5471 5468 5465 5462
5487 5485 5477 5474 5477 5493 5512 5516 5513 5509 5511 5508 5505 5506 5503 5502 5504 5505 5506 5502 5501 5501 5501 5500 5499 5499 5498 5497 5496 5493 5491 5488 5485 5483 5481 5478 5475 5471 5467 5464 5461 5458 5454 5451
5472 5474 5473 5469 5477 5489 5511 5512 5507 5505 5501 5504 5498 5495 5493 5493 5492 5496 5498 5494 5493 5492 5491 5491 5491 5489 5488 5487 5485 5483 5480 5477 5476 5474 5472 5468 5465 5461 5457 5454 5451 5447 5444 5441
5462 5459 5461 5462 5466 5479 5494 5495 5495 5491 5493 5492 5489 5486 5482 5480 5481 5484 5484 5484 5484 5483 5482 5482 5481 5480 5478 5476 5474 5472 5470 5468 5467 5464 5461 5458 5455 5451 5448 5444 5440 5436 5433 5430
5459 5453 5453 5455 5457 5472 5487 5481 5479 5479 5478 5478 5477 5475 5472 5470 5471 5472 5472 5473 5473 5473 5473 5471 5470 5469 5467 5465 5464 5462 5460 5459 5457 5454 5451 5448 5444 5441 5438 5433 5429 5425 5422 5418
5450 5457 5457 5459 5469 5470 5469 5469 5468 5464 5464 5464 5463 5463 5461 5460 5460 5461 5461 5461 5461 5460 5460 5459 5458 5457 5455 5453 5452 5451 5450 5447 5445 5442 5439 5436 5433 5429 5426 5422 5418 5414 5410 5407
5440 5442 5443 5443 5452 5456 5456 5454 5454 5453 5452 5453 5451 5451 5450 5449 5450 5449 5448 5448 5447 5447 5447 5446 5445 5444 5443 5441 5440 5438 5437 5435 5433 5430 5427 5424 5420 5417 5414 5411 5408 5404 5400 5396
5433 5430 5429 5433 5440 5441 5445 5443 5443 5442 5441 5440 5440 5441 5440 5438 5439 5437 5436 5436 5435 5435 5434 5432 5431 5430 5430 5428 5427 5425 5423 5421 5419 5417 5414 5411 5408 5405 5402 5399 5396 5393 5391 5388
5420 5421 5421 5428 5430 5427 5431 5433 5431 5430 5430 5430 5429 5429 5429 5427 5426 5425 5424 5423 5422 5421 5420 5418 5417 5417 5416 5415 5414 5412 5410 5408 5406 5403 5400 5398 5395 5392 5389 5386 5384 5382 5380 5379